{"data":{"norad_id":50473,"intl_designator":"2021-132E","name":"ONEWEB-0393","alt_names":[],"object_type":"PAYLOAD","status":"ACTIVE","operator":null,"country":"UK","launch_date":"2021-12-27","launch_site_code":"TYMSC","launch_vehicle":null,"mission":null,"orbit_class":"UNKNOWN","rcs_meters":null,"size_class":null,"mass_kg":null,"dimensions":null,"purposes":["comms"],"wikipedia_slug":null,"has_3d_model":false,"image_url":null,"decayed_at":null,"tle_current":{"epoch":"2026-09-19T23:25:55.327584Z","epoch_age_seconds":71129,"freshness":"FRESH","line1":"1 50473U 21132E   26262.97633481  .00000016  00000+0  88030-5 0  9997","line2":"2 50473  87.9198 347.0411 0001973 104.5731 255.5619 13.17647431230593","mean_motion":13.17647431,"eccentricity":0.0001973,"inclination_deg":87.9198,"raan_deg":347.0411,"arg_perigee_deg":104.5731,"mean_anomaly_deg":255.5619,"bstar":8.803e-6,"rev_number":23059,"period_min":109.28568341739,"perigee_km":1192.2253434508,"apogee_km":1195.2131979352,"semimajor_km":7571.856270693,"source":"CELESTRAK","updated_at":"2026-09-20T09:00:44.677460Z"}}}